Year,Month,Day,Hour,Minute,Value (Times are PST for temperature in C)
2015,04,28,00,00,13.70
2015,04,28,00,01,13.70
2015,04,28,00,02,13.70
2015,04,28,00,03,13.70
2015,04,28,00,04,13.80
2015,04,28,00,05,13.90
2015,04,28,00,06,14.00
2015,04,28,00,07,14.00
2015,04,28,00,08,14.00
2015,04,28,00,09,14.10
2015,04,28,00,10,14.20
2015,04,28,00,11,14.30
2015,04,28,00,12,14.30
2015,04,28,00,13,14.40
2015,04,28,00,14,14.40
2015,04,28,00,15,14.40
2015,04,28,00,16,14.40
2015,04,28,00,17,14.30
2015,04,28,00,18,14.20
2015,04,28,00,19,14.20
2015,04,28,00,20,14.10
2015,04,28,00,21,14.10
2015,04,28,00,22,14.10
2015,04,28,00,23,14.20
2015,04,28,00,24,14.20
2015,04,28,00,25,14.20
2015,04,28,00,26,14.10
2015,04,28,00,27,14.10
2015,04,28,00,28,14.10
2015,04,28,00,29,14.10
2015,04,28,00,30,14.10
2015,04,28,00,31,14.10
2015,04,28,00,32,14.10
2015,04,28,00,33,14.10
2015,04,28,00,34,14.20
2015,04,28,00,35,14.10
2015,04,28,00,36,14.20
2015,04,28,00,37,14.20
2015,04,28,00,38,14.30
2015,04,28,00,39,14.30
2015,04,28,00,40,14.30
2015,04,28,00,41,14.20
2015,04,28,00,42,14.20
2015,04,28,00,43,14.20
2015,04,28,00,44,14.20
2015,04,28,00,45,14.10
2015,04,28,00,46,14.10
2015,04,28,00,47,14.00
2015,04,28,00,48,13.90
2015,04,28,00,49,13.90
2015,04,28,00,50,13.80
2015,04,28,00,51,13.80
2015,04,28,00,52,13.80
2015,04,28,00,53,13.80
2015,04,28,00,54,13.70
2015,04,28,00,55,13.70
2015,04,28,00,56,13.70
2015,04,28,00,57,13.70
2015,04,28,00,58,13.60
2015,04,28,00,59,13.60
2015,04,28,01,00,13.50
2015,04,28,01,01,13.50
2015,04,28,01,02,13.40
2015,04,28,01,03,13.40
2015,04,28,01,04,13.30
2015,04,28,01,05,13.30
2015,04,28,01,06,13.30
2015,04,28,01,07,13.30
2015,04,28,01,08,13.30
2015,04,28,01,09,13.30
2015,04,28,01,10,13.30
2015,04,28,01,11,13.30
2015,04,28,01,12,13.30
2015,04,28,01,13,13.30
2015,04,28,01,14,13.30
2015,04,28,01,15,13.40
2015,04,28,01,16,13.40
2015,04,28,01,17,13.40
2015,04,28,01,18,13.40
2015,04,28,01,19,13.40
2015,04,28,01,20,13.40
2015,04,28,01,21,13.40
2015,04,28,01,22,13.40
2015,04,28,01,23,13.40
2015,04,28,01,24,13.40
2015,04,28,01,25,13.40
2015,04,28,01,26,13.40
2015,04,28,01,27,13.40
2015,04,28,01,28,13.40
2015,04,28,01,29,13.30
2015,04,28,01,30,13.30
2015,04,28,01,31,13.30
2015,04,28,01,32,13.30
2015,04,28,01,33,13.30
2015,04,28,01,34,13.30
2015,04,28,01,35,13.20
2015,04,28,01,36,13.20
2015,04,28,01,37,13.20
2015,04,28,01,38,13.20
2015,04,28,01,39,13.20
2015,04,28,01,40,13.10
2015,04,28,01,41,13.10
2015,04,28,01,42,13.10
2015,04,28,01,43,13.10
2015,04,28,01,44,13.10
2015,04,28,01,45,13.10
2015,04,28,01,46,13.10
2015,04,28,01,47,13.10
2015,04,28,01,48,13.10
2015,04,28,01,49,13.10
2015,04,28,01,50,13.10
2015,04,28,01,51,13.10
2015,04,28,01,52,13.10
2015,04,28,01,53,13.20
2015,04,28,01,54,13.20
2015,04,28,01,55,13.20
2015,04,28,01,56,13.20
2015,04,28,01,57,13.20
2015,04,28,01,58,13.20
2015,04,28,01,59,13.20
2015,04,28,02,00,13.20
2015,04,28,02,01,13.20
2015,04,28,02,02,13.20
2015,04,28,02,03,13.20
2015,04,28,02,04,13.30
2015,04,28,02,05,13.30
2015,04,28,02,06,13.40
2015,04,28,02,07,13.50
2015,04,28,02,08,13.60
2015,04,28,02,09,13.60
2015,04,28,02,10,13.70
2015,04,28,02,11,13.80
2015,04,28,02,12,13.90
2015,04,28,02,13,13.90
2015,04,28,02,14,14.00
2015,04,28,02,15,14.00
2015,04,28,02,16,14.10
2015,04,28,02,17,14.10
2015,04,28,02,18,14.00
2015,04,28,02,19,14.00
2015,04,28,02,20,14.00
2015,04,28,02,21,13.90
2015,04,28,02,22,13.90
2015,04,28,02,23,13.90
2015,04,28,02,24,13.90
2015,04,28,02,25,13.90
2015,04,28,02,26,13.90
2015,04,28,02,27,13.90
2015,04,28,02,28,13.90
2015,04,28,02,29,13.90
2015,04,28,02,30,13.80
2015,04,28,02,31,13.80
2015,04,28,02,32,13.80
2015,04,28,02,33,13.70
2015,04,28,02,34,13.70
2015,04,28,02,35,13.70
2015,04,28,02,36,13.70
2015,04,28,02,37,13.70
2015,04,28,02,38,13.70
2015,04,28,02,39,13.70
2015,04,28,02,40,13.70
2015,04,28,02,41,13.70
2015,04,28,02,42,13.70
2015,04,28,02,43,13.60
2015,04,28,02,44,13.60
2015,04,28,02,45,13.50
2015,04,28,02,46,13.50
2015,04,28,02,47,13.50
2015,04,28,02,48,13.40
2015,04,28,02,49,13.40
2015,04,28,02,50,13.40
2015,04,28,02,51,13.40
2015,04,28,02,52,13.40
2015,04,28,02,53,13.30
2015,04,28,02,54,13.30
2015,04,28,02,55,13.30
2015,04,28,02,56,13.30
2015,04,28,02,57,13.30
2015,04,28,02,58,13.30
2015,04,28,02,59,13.30
2015,04,28,03,00,13.30
2015,04,28,03,01,13.30
2015,04,28,03,02,13.30
2015,04,28,03,03,13.30
2015,04,28,03,04,13.30
2015,04,28,03,05,13.30
2015,04,28,03,06,13.30
2015,04,28,03,07,13.30
2015,04,28,03,08,13.30
2015,04,28,03,09,13.30
2015,04,28,03,10,13.30
2015,04,28,03,11,13.30
2015,04,28,03,12,13.30
2015,04,28,03,13,13.30
2015,04,28,03,14,13.30
2015,04,28,03,15,13.30
2015,04,28,03,16,13.30
2015,04,28,03,17,13.30
2015,04,28,03,18,13.30
2015,04,28,03,19,13.30
2015,04,28,03,20,13.30
2015,04,28,03,21,13.30
2015,04,28,03,22,13.30
2015,04,28,03,23,13.30
2015,04,28,03,24,13.30
2015,04,28,03,25,13.30
2015,04,28,03,26,13.30
2015,04,28,03,27,13.30
2015,04,28,03,28,13.30
2015,04,28,03,29,13.30
2015,04,28,03,30,13.30
2015,04,28,03,31,13.20
2015,04,28,03,32,13.20
2015,04,28,03,33,13.20
2015,04,28,03,34,13.20
2015,04,28,03,35,13.20
2015,04,28,03,36,13.10
2015,04,28,03,37,13.10
2015,04,28,03,38,13.10
2015,04,28,03,39,13.10
2015,04,28,03,40,13.10
2015,04,28,03,41,13.10
2015,04,28,03,42,13.20
2015,04,28,03,43,13.20
2015,04,28,03,44,13.20
2015,04,28,03,45,13.20
2015,04,28,03,46,13.20
2015,04,28,03,47,13.20
2015,04,28,03,48,13.30
2015,04,28,03,49,13.30
2015,04,28,03,50,13.30
2015,04,28,03,51,13.40
2015,04,28,03,52,13.50
2015,04,28,03,53,13.50
2015,04,28,03,54,13.50
2015,04,28,03,55,13.60
2015,04,28,03,56,13.60
2015,04,28,03,57,13.60
2015,04,28,03,58,13.70
2015,04,28,03,59,13.70
2015,04,28,04,00,13.70
2015,04,28,04,01,13.70
2015,04,28,04,02,13.70
2015,04,28,04,03,13.70
2015,04,28,04,04,13.70
2015,04,28,04,05,13.70
2015,04,28,04,06,13.70
2015,04,28,04,07,13.70
2015,04,28,05,02,12.90
2015,04,28,05,03,12.90
2015,04,28,05,04,12.90
2015,04,28,05,05,13.00
2015,04,28,05,06,13.00
2015,04,28,05,07,12.90
2015,04,28,05,08,12.80
2015,04,28,05,09,12.60
2015,04,28,05,10,12.40
2015,04,28,05,11,12.20
2015,04,28,05,12,12.00
2015,04,28,05,13,11.90
2015,04,28,05,14,11.90
2015,04,28,05,15,11.80
2015,04,28,05,16,11.70
2015,04,28,05,17,11.60
2015,04,28,05,18,11.60
2015,04,28,05,19,11.50
2015,04,28,05,20,11.40
2015,04,28,05,21,11.40
2015,04,28,05,22,11.40
2015,04,28,05,23,11.40
2015,04,28,05,24,11.30
2015,04,28,05,25,11.30
2015,04,28,05,26,11.30
2015,04,28,05,27,11.30
2015,04,28,05,28,11.30
2015,04,28,05,29,11.40
2015,04,28,05,30,11.50
2015,04,28,05,31,11.50
2015,04,28,05,32,11.60
2015,04,28,05,33,11.60
2015,04,28,05,34,11.60
2015,04,28,05,35,11.60
2015,04,28,05,36,11.60
2015,04,28,05,37,11.50
2015,04,28,05,38,11.60
2015,04,28,05,39,11.70
2015,04,28,05,40,11.70
2015,04,28,05,41,11.70
2015,04,28,05,42,11.80
2015,04,28,05,43,11.80
2015,04,28,05,44,11.80
2015,04,28,05,45,11.90
2015,04,28,05,46,12.00
2015,04,28,05,47,12.00
2015,04,28,05,48,11.90
2015,04,28,05,49,11.70
2015,04,28,05,50,11.50
2015,04,28,05,51,11.20
2015,04,28,05,52,11.10
2015,04,28,05,53,10.90
2015,04,28,05,54,10.80
2015,04,28,05,55,10.80
2015,04,28,05,56,10.70
2015,04,28,05,57,10.60
2015,04,28,05,58,10.50
2015,04,28,05,59,10.40
2015,04,28,06,00,10.40
2015,04,28,06,01,10.30
2015,04,28,06,02,10.30
2015,04,28,06,03,10.40
2015,04,28,06,04,10.40
2015,04,28,06,05,10.40
2015,04,28,06,06,10.40
2015,04,28,06,07,10.30
2015,04,28,06,08,10.30
2015,04,28,06,09,10.20
2015,04,28,06,10,10.20
2015,04,28,06,11,10.20
2015,04,28,06,12,10.20
2015,04,28,06,13,10.20
2015,04,28,06,14,10.10
2015,04,28,06,15,10.10
2015,04,28,06,16,10.10
2015,04,28,06,17,10.00
2015,04,28,06,18,10.10
2015,04,28,06,19,10.10
2015,04,28,06,20,10.00
2015,04,28,06,21,10.00
2015,04,28,06,22,9.90
2015,04,28,06,23,9.90
2015,04,28,06,24,9.80
2015,04,28,06,25,9.80
2015,04,28,06,26,9.90
2015,04,28,06,27,9.90
2015,04,28,06,28,9.90
2015,04,28,06,29,9.90
2015,04,28,06,30,9.90
2015,04,28,06,31,9.70
2015,04,28,06,32,9.60
2015,04,28,06,33,9.60
2015,04,28,06,34,9.50
2015,04,28,06,35,9.40
2015,04,28,06,36,9.30
2015,04,28,06,37,9.30
2015,04,28,06,38,9.30
2015,04,28,06,39,9.30
2015,04,28,06,40,9.30
2015,04,28,06,41,9.30
2015,04,28,06,42,9.40
2015,04,28,06,43,9.40
2015,04,28,06,44,9.40
2015,04,28,06,45,9.40
2015,04,28,06,46,9.40
2015,04,28,06,47,9.40
2015,04,28,06,48,9.40
2015,04,28,06,49,9.30
2015,04,28,06,50,9.30
2015,04,28,06,51,9.30
2015,04,28,06,52,9.20
2015,04,28,06,53,9.20
2015,04,28,06,54,9.20
2015,04,28,06,55,9.10
2015,04,28,06,56,9.10
2015,04,28,06,57,9.10
2015,04,28,06,58,9.00
2015,04,28,06,59,9.00
2015,04,28,07,00,8.90
2015,04,28,07,01,8.90
2015,04,28,07,02,8.90
2015,04,28,07,03,8.90
2015,04,28,07,04,8.90
2015,04,28,07,05,8.90
2015,04,28,07,06,9.00
2015,04,28,07,07,9.00
2015,04,28,07,08,9.00
2015,04,28,07,09,9.10
2015,04,28,07,10,9.10
2015,04,28,07,11,9.10
2015,04,28,07,12,9.10
2015,04,28,07,13,9.10
2015,04,28,07,14,9.20
2015,04,28,07,15,9.20
2015,04,28,07,16,9.20
2015,04,28,07,17,9.20
2015,04,28,07,18,9.20
2015,04,28,07,19,9.20
2015,04,28,07,20,9.20
2015,04,28,07,21,9.30
2015,04,28,07,22,9.30
2015,04,28,07,23,9.40
2015,04,28,07,24,9.40
2015,04,28,07,25,9.50
2015,04,28,07,26,9.50
2015,04,28,07,27,9.60
2015,04,28,07,28,9.50
2015,04,28,07,29,9.50
2015,04,28,07,30,9.40
2015,04,28,07,31,9.40
2015,04,28,07,32,9.40
2015,04,28,07,33,9.40
2015,04,28,07,34,9.40
2015,04,28,07,35,9.30
2015,04,28,07,36,9.30
2015,04,28,07,37,9.30
2015,04,28,07,38,9.20
2015,04,28,07,39,9.20
2015,04,28,07,40,9.10
2015,04,28,07,41,9.10
2015,04,28,07,42,9.10
2015,04,28,07,43,9.10
2015,04,28,07,44,9.10
2015,04,28,07,45,9.10
2015,04,28,07,46,9.10
2015,04,28,07,47,9.10
2015,04,28,07,48,9.10
2015,04,28,07,49,9.10
2015,04,28,07,50,9.10
2015,04,28,07,51,9.00
2015,04,28,07,52,9.00
2015,04,28,07,53,9.10
2015,04,28,07,54,9.10
2015,04,28,07,55,9.10
2015,04,28,07,56,9.10
2015,04,28,07,57,9.10
2015,04,28,07,58,9.10
2015,04,28,07,59,9.10
2015,04,28,08,00,9.10
2015,04,28,08,01,9.10
2015,04,28,08,02,9.10
2015,04,28,08,03,9.10
2015,04,28,08,04,9.00
2015,04,28,08,05,9.00
2015,04,28,08,06,9.00
2015,04,28,08,07,8.90
2015,04,28,08,08,8.90
2015,04,28,08,09,8.80
2015,04,28,08,10,8.80
2015,04,28,08,11,8.80
2015,04,28,08,12,8.80
2015,04,28,08,13,8.70
2015,04,28,08,14,8.70
2015,04,28,08,15,8.70
2015,04,28,08,16,8.60
2015,04,28,08,17,8.60
2015,04,28,08,18,8.60
2015,04,28,08,19,8.70
2015,04,28,08,20,8.70
2015,04,28,08,21,8.80
2015,04,28,08,22,8.80
2015,04,28,08,23,8.80
2015,04,28,08,24,8.80
2015,04,28,08,25,8.80
2015,04,28,08,26,8.80
2015,04,28,08,27,8.80
2015,04,28,08,28,8.80
2015,04,28,08,29,8.80
2015,04,28,08,30,8.80
2015,04,28,08,31,8.80
2015,04,28,08,32,8.80
2015,04,28,08,33,8.80
2015,04,28,08,34,8.90
2015,04,28,08,35,8.90
2015,04,28,08,36,8.90
2015,04,28,08,37,9.00
2015,04,28,08,38,9.00
2015,04,28,08,39,9.00
2015,04,28,08,40,9.10
2015,04,28,08,41,9.20
2015,04,28,08,42,9.30
2015,04,28,08,43,9.40
2015,04,28,08,44,9.50
2015,04,28,08,45,9.60
2015,04,28,08,46,9.70
2015,04,28,08,47,9.80
2015,04,28,08,48,9.90
2015,04,28,08,49,10.00
2015,04,28,08,50,10.20
2015,04,28,08,51,10.30
2015,04,28,08,52,10.40
2015,04,28,08,53,10.50
2015,04,28,08,54,10.60
2015,04,28,08,55,10.70
2015,04,28,08,56,10.80
2015,04,28,08,57,10.80
2015,04,28,08,58,10.90
2015,04,28,08,59,11.00
2015,04,28,09,00,11.10
2015,04,28,09,01,11.20
2015,04,28,09,02,11.20
2015,04,28,09,03,11.20
2015,04,28,09,04,11.20
2015,04,28,09,05,11.30
2015,04,28,09,06,11.30
2015,04,28,09,07,11.30
2015,04,28,09,08,11.40
2015,04,28,09,09,11.40
2015,04,28,09,10,11.40
2015,04,28,09,11,11.40
2015,04,28,09,12,11.40
2015,04,28,09,13,11.30
2015,04,28,09,14,11.30
2015,04,28,09,15,11.30
2015,04,28,09,16,11.30
2015,04,28,09,17,11.30
2015,04,28,09,18,11.20
2015,04,28,09,19,11.20
2015,04,28,09,20,11.20
2015,04,28,09,21,11.20
2015,04,28,09,22,11.20
2015,04,28,09,23,11.20
2015,04,28,09,24,11.20
2015,04,28,09,25,11.20
2015,04,28,09,26,11.20
2015,04,28,09,27,11.30
2015,04,28,09,28,11.30
2015,04,28,09,29,11.30
2015,04,28,09,30,11.40
2015,04,28,09,31,11.50
2015,04,28,09,32,11.60
2015,04,28,09,33,11.70
2015,04,28,09,34,11.80
2015,04,28,09,35,11.80
2015,04,28,09,36,11.80
2015,04,28,09,37,11.70
2015,04,28,09,38,11.70
2015,04,28,09,39,11.70
2015,04,28,09,40,11.60
2015,04,28,09,41,11.60
2015,04,28,09,42,11.60
2015,04,28,09,43,11.60
2015,04,28,09,44,11.70
2015,04,28,09,45,11.70
2015,04,28,09,46,11.70
2015,04,28,09,47,11.80
2015,04,28,09,48,11.80
2015,04,28,09,49,11.80
2015,04,28,09,50,11.80
2015,04,28,09,51,11.80
2015,04,28,09,52,11.90
2015,04,28,09,53,12.00
2015,04,28,09,54,12.10
2015,04,28,09,55,12.20
2015,04,28,09,56,12.20
2015,04,28,09,57,12.30
2015,04,28,09,58,12.30
2015,04,28,09,59,12.30
2015,04,28,10,00,12.30
2015,04,28,10,01,12.40
2015,04,28,10,02,12.50
2015,04,28,10,03,12.60
2015,04,28,10,04,12.70
2015,04,28,10,05,12.80
2015,04,28,10,06,12.80
2015,04,28,10,07,12.90
2015,04,28,10,08,12.90
2015,04,28,10,09,12.90
2015,04,28,10,10,12.90
2015,04,28,10,11,12.90
2015,04,28,10,12,12.80
2015,04,28,10,13,12.80
2015,04,28,10,14,12.80
2015,04,28,10,15,12.80
2015,04,28,10,16,12.80
2015,04,28,10,17,12.90
2015,04,28,10,18,12.80
2015,04,28,10,19,12.80
2015,04,28,10,20,12.70
2015,04,28,10,21,12.70
2015,04,28,10,22,12.60
2015,04,28,10,23,12.60
2015,04,28,10,24,12.60
2015,04,28,10,25,12.70
2015,04,28,10,26,12.80
2015,04,28,10,27,12.80
2015,04,28,10,28,12.80
2015,04,28,10,29,12.80
2015,04,28,10,30,12.80
2015,04,28,10,31,12.90
2015,04,28,10,32,12.90
2015,04,28,10,33,12.90
2015,04,28,10,34,12.90
2015,04,28,10,35,12.90
2015,04,28,10,36,12.90
2015,04,28,10,37,12.90
2015,04,28,10,38,12.90
2015,04,28,10,39,12.90
2015,04,28,10,40,12.90
2015,04,28,10,41,12.80
2015,04,28,10,42,12.70
2015,04,28,10,43,12.60
2015,04,28,10,44,12.60
2015,04,28,10,45,12.50
2015,04,28,10,46,12.30
2015,04,28,10,47,12.30
2015,04,28,10,48,12.20
2015,04,28,10,49,12.10
2015,04,28,10,50,12.10
2015,04,28,10,51,12.10
2015,04,28,10,52,12.00
2015,04,28,10,53,11.90
2015,04,28,10,54,11.90
2015,04,28,10,55,11.80
2015,04,28,10,56,11.80
2015,04,28,10,57,11.70
2015,04,28,10,58,11.70
2015,04,28,10,59,11.60
2015,04,28,11,00,11.60
2015,04,28,11,01,11.60
2015,04,28,11,02,11.60
2015,04,28,11,03,11.60
2015,04,28,11,04,11.60
2015,04,28,11,05,11.60
2015,04,28,11,06,11.60
2015,04,28,11,07,11.60
2015,04,28,11,08,11.60
2015,04,28,11,09,11.60
2015,04,28,11,10,11.60
2015,04,28,11,11,11.50
2015,04,28,11,12,11.50
2015,04,28,11,13,11.40
2015,04,28,11,14,11.40
2015,04,28,11,15,11.50
2015,04,28,11,16,11.50
2015,04,28,11,17,11.50
2015,04,28,11,18,11.50
2015,04,28,11,19,11.50
2015,04,28,11,20,11.50
2015,04,28,11,21,11.60
2015,04,28,11,22,11.60
2015,04,28,11,23,11.60
2015,04,28,11,24,11.60
2015,04,28,11,25,11.70
2015,04,28,11,26,11.70
2015,04,28,11,27,11.70
2015,04,28,11,28,11.70
2015,04,28,11,29,11.70
2015,04,28,11,30,11.80
2015,04,28,11,31,11.80
2015,04,28,11,32,11.80
2015,04,28,11,33,11.90
2015,04,28,11,34,12.00
2015,04,28,11,35,12.10
2015,04,28,11,36,12.10
2015,04,28,11,37,12.10
2015,04,28,11,38,12.20
2015,04,28,11,39,12.20
2015,04,28,11,40,12.20
2015,04,28,11,41,12.30
2015,04,28,11,42,12.30
2015,04,28,11,43,12.30
2015,04,28,11,44,12.30
2015,04,28,11,45,12.30
2015,04,28,11,46,12.30
2015,04,28,11,47,12.20
2015,04,28,11,48,12.20
2015,04,28,11,49,12.10
2015,04,28,11,50,12.10
2015,04,28,11,51,12.00
2015,04,28,11,52,11.90
2015,04,28,11,53,11.90
2015,04,28,11,54,11.80
2015,04,28,11,55,11.90
2015,04,28,11,56,11.90
2015,04,28,11,57,11.90
2015,04,28,11,58,11.90
2015,04,28,11,59,12.00
2015,04,28,12,00,12.00
2015,04,28,12,01,12.10
2015,04,28,12,02,12.20
2015,04,28,12,03,12.20
2015,04,28,12,04,12.20
2015,04,28,12,05,12.20
2015,04,28,12,06,12.20
2015,04,28,12,07,12.20
2015,04,28,12,08,12.20
2015,04,28,12,09,12.20
2015,04,28,12,10,12.30
2015,04,28,12,11,12.30
2015,04,28,12,12,12.30
2015,04,28,12,13,12.40
2015,04,28,12,14,12.40
2015,04,28,12,15,12.50
2015,04,28,12,16,12.50
2015,04,28,12,17,12.60
2015,04,28,12,18,12.60
2015,04,28,12,19,12.70
2015,04,28,12,20,12.70
2015,04,28,12,21,12.70
2015,04,28,12,22,12.80
2015,04,28,12,23,12.80
2015,04,28,12,24,12.80
2015,04,28,12,25,12.80
2015,04,28,12,26,12.80
2015,04,28,12,27,12.80
2015,04,28,12,28,12.80
2015,04,28,12,29,12.80
2015,04,28,12,30,12.80
2015,04,28,12,31,12.80
2015,04,28,12,32,12.70
2015,04,28,12,33,12.70
2015,04,28,12,34,12.70
2015,04,28,12,35,12.70
2015,04,28,12,36,12.70
2015,04,28,12,37,12.70
2015,04,28,12,38,12.70
2015,04,28,12,39,12.70
2015,04,28,12,40,12.70
2015,04,28,12,41,12.70
2015,04,28,12,42,12.70
2015,04,28,12,43,12.70
2015,04,28,12,44,12.70
2015,04,28,12,45,12.70
2015,04,28,12,46,12.80
2015,04,28,12,47,12.70
2015,04,28,12,48,12.70
2015,04,28,12,49,12.80
2015,04,28,12,50,12.80
2015,04,28,12,51,12.80
2015,04,28,12,52,12.80
2015,04,28,12,53,12.80
2015,04,28,12,54,12.80
2015,04,28,12,55,12.80
2015,04,28,12,56,12.90
2015,04,28,12,57,12.90
2015,04,28,12,58,12.90
2015,04,28,12,59,13.00
2015,04,28,13,00,13.00
2015,04,28,13,01,13.00
2015,04,28,13,02,13.00
2015,04,28,13,03,12.90
2015,04,28,13,04,13.00
2015,04,28,13,05,13.00
2015,04,28,13,06,13.10
2015,04,28,13,07,13.10
2015,04,28,13,08,13.10
2015,04,28,13,09,13.10
2015,04,28,13,10,13.00
2015,04,28,13,11,13.00
2015,04,28,13,12,12.90
2015,04,28,13,13,12.90
2015,04,28,13,14,12.90
2015,04,28,13,15,12.90
2015,04,28,13,16,12.90
2015,04,28,13,17,12.90
2015,04,28,13,18,12.90
2015,04,28,13,19,12.80
2015,04,28,13,20,12.80
2015,04,28,13,21,12.80
2015,04,28,13,22,12.80
2015,04,28,13,23,12.90
2015,04,28,13,24,12.90
2015,04,28,13,25,12.90
2015,04,28,13,26,12.90
2015,04,28,13,27,12.90
2015,04,28,13,28,12.80
2015,04,28,13,29,12.80
2015,04,28,13,30,12.80
2015,04,28,13,31,12.90
2015,04,28,13,32,12.80
2015,04,28,13,33,12.80
2015,04,28,13,34,12.90
2015,04,28,13,35,12.90
2015,04,28,13,36,12.80
2015,04,28,13,37,12.80
2015,04,28,13,38,12.80
2015,04,28,13,39,12.80
2015,04,28,13,40,12.80
2015,04,28,13,41,12.80
2015,04,28,13,42,12.80
2015,04,28,13,43,12.80
2015,04,28,13,44,12.80
2015,04,28,13,45,12.80
2015,04,28,13,46,12.80
2015,04,28,13,47,12.80
2015,04,28,13,48,12.80
2015,04,28,13,49,12.80
2015,04,28,13,50,12.80
2015,04,28,13,51,12.80
2015,04,28,13,52,12.80
2015,04,28,13,53,12.90
2015,04,28,13,54,12.90
2015,04,28,13,55,12.90
2015,04,28,13,56,12.80
2015,04,28,13,57,12.80
2015,04,28,13,58,12.70
2015,04,28,13,59,12.70
2015,04,28,14,00,12.70
2015,04,28,14,01,12.60
2015,04,28,14,02,12.60
2015,04,28,14,03,12.50
2015,04,28,14,04,12.50
2015,04,28,14,05,12.40
2015,04,28,14,06,12.30
2015,04,28,14,07,12.20
2015,04,28,14,08,12.20
2015,04,28,14,09,12.10
2015,04,28,14,10,12.10
2015,04,28,14,11,12.10
2015,04,28,14,12,12.10
2015,04,28,14,13,12.10
2015,04,28,14,14,12.10
2015,04,28,14,15,12.10
2015,04,28,14,16,12.10
2015,04,28,14,17,12.10
2015,04,28,14,18,12.10
2015,04,28,14,19,12.10
2015,04,28,14,20,12.20
2015,04,28,14,21,12.20
2015,04,28,14,22,12.30
2015,04,28,14,23,12.30
2015,04,28,14,24,12.30
2015,04,28,14,25,12.30
2015,04,28,14,26,12.40
2015,04,28,14,27,12.50
2015,04,28,14,28,12.50
2015,04,28,14,29,12.60
2015,04,28,14,30,12.70
2015,04,28,14,31,12.80
2015,04,28,14,32,12.90
2015,04,28,14,33,13.00
2015,04,28,14,34,13.20
2015,04,28,14,35,13.30
2015,04,28,14,36,13.40
2015,04,28,14,37,13.50
2015,04,28,14,38,13.50
2015,04,28,14,39,13.60
2015,04,28,14,40,13.60
2015,04,28,14,41,13.60
2015,04,28,14,42,13.50
2015,04,28,14,43,13.50
2015,04,28,14,44,13.50
2015,04,28,14,45,13.40
2015,04,28,14,46,13.40
2015,04,28,14,47,13.30
2015,04,28,14,48,13.30
2015,04,28,14,49,13.20
2015,04,28,14,50,13.20
2015,04,28,14,51,13.20
2015,04,28,14,52,13.20
2015,04,28,14,53,13.20
2015,04,28,14,54,13.20
2015,04,28,14,55,13.10
2015,04,28,14,56,13.10
2015,04,28,14,57,13.10
2015,04,28,14,58,13.00
2015,04,28,14,59,13.00
2015,04,28,15,00,13.00
2015,04,28,15,01,13.00
2015,04,28,15,02,13.00
2015,04,28,15,03,13.10
2015,04,28,15,04,13.10
2015,04,28,15,05,13.10
2015,04,28,15,06,13.10
2015,04,28,15,07,13.10
2015,04,28,15,08,13.10
2015,04,28,15,09,13.10
2015,04,28,15,10,13.20
2015,04,28,15,11,13.20
2015,04,28,15,12,13.20
2015,04,28,15,13,13.20
2015,04,28,15,14,13.20
2015,04,28,15,15,13.20
2015,04,28,15,16,13.20
2015,04,28,15,17,13.30
2015,04,28,15,18,13.20
2015,04,28,15,19,13.20
2015,04,28,15,20,13.20
2015,04,28,15,21,13.20
2015,04,28,15,22,13.20
2015,04,28,15,23,13.20
2015,04,28,15,24,13.20
2015,04,28,15,25,13.20
2015,04,28,15,26,13.20
2015,04,28,15,27,13.20
2015,04,28,15,28,13.20
2015,04,28,15,29,13.20
2015,04,28,15,30,13.20
2015,04,28,15,31,13.10
2015,04,28,15,32,13.10
2015,04,28,15,33,13.10
2015,04,28,15,34,13.20
2015,04,28,15,35,13.20
2015,04,28,15,36,13.20
2015,04,28,15,37,13.20
2015,04,28,15,38,13.20
2015,04,28,15,39,13.30
2015,04,28,15,40,13.30
2015,04,28,15,41,13.40
2015,04,28,15,42,13.50
2015,04,28,15,43,13.60
2015,04,28,15,44,13.70
2015,04,28,15,45,13.70
2015,04,28,15,46,13.70
2015,04,28,15,47,13.70
2015,04,28,15,48,13.70
2015,04,28,15,49,13.70
2015,04,28,15,50,13.70
2015,04,28,15,51,13.60
2015,04,28,15,52,13.60
2015,04,28,15,53,13.60
2015,04,28,15,54,13.60
2015,04,28,15,55,13.60
2015,04,28,15,56,13.60
2015,04,28,15,57,13.60
2015,04,28,15,58,13.60
2015,04,28,15,59,13.50
2015,04,28,16,00,13.50
2015,04,28,16,01,13.40
2015,04,28,16,02,13.40
2015,04,28,16,03,13.40
2015,04,28,16,04,13.30
2015,04,28,16,05,13.30
2015,04,28,16,06,13.30
2015,04,28,16,07,13.30
2015,04,28,16,08,13.30
2015,04,28,16,09,13.30
2015,04,28,16,10,13.40
2015,04,28,16,11,13.40
2015,04,28,16,12,13.50
2015,04,28,16,13,13.50
2015,04,28,16,14,13.60
2015,04,28,16,15,13.70
2015,04,28,16,16,13.70
2015,04,28,16,17,13.80
2015,04,28,16,18,13.80
2015,04,28,16,19,13.90
2015,04,28,16,20,13.90
2015,04,28,16,21,13.90
2015,04,28,16,22,14.00
2015,04,28,16,23,14.00
2015,04,28,16,24,14.00
2015,04,28,16,25,14.00
2015,04,28,16,26,14.00
2015,04,28,16,27,14.00
2015,04,28,16,28,14.00
2015,04,28,16,29,14.10
2015,04,28,16,30,14.10
2015,04,28,16,31,14.10
2015,04,28,16,32,14.10
2015,04,28,16,33,14.10
2015,04,28,16,34,14.10
2015,04,28,16,35,14.10
2015,04,28,16,36,14.10
2015,04,28,16,37,14.00
2015,04,28,16,38,14.00
2015,04,28,16,39,14.00
2015,04,28,16,40,13.90
2015,04,28,16,41,13.90
2015,04,28,16,42,13.90
2015,04,28,16,43,13.90
2015,04,28,16,44,13.90
2015,04,28,16,45,13.90
2015,04,28,16,46,13.90
2015,04,28,16,47,13.90
2015,04,28,16,48,13.80
2015,04,28,16,49,13.80
2015,04,28,16,50,13.80
2015,04,28,16,51,13.80
2015,04,28,16,52,13.70
2015,04,28,16,53,13.70
2015,04,28,16,54,13.70
2015,04,28,16,55,13.70
2015,04,28,16,56,13.70
2015,04,28,16,57,13.70
2015,04,28,16,58,13.70
2015,04,28,16,59,13.70
2015,04,28,17,00,13.70
2015,04,28,17,01,13.70
2015,04,28,17,02,13.70
2015,04,28,17,03,13.70
2015,04,28,17,04,13.70
2015,04,28,17,05,13.70
2015,04,28,17,06,13.70
2015,04,28,17,07,13.70
2015,04,28,17,08,13.60
2015,04,28,17,09,13.60
2015,04,28,17,10,13.60
2015,04,28,17,11,13.60
2015,04,28,17,12,13.60
2015,04,28,17,13,13.60
2015,04,28,17,14,13.60
2015,04,28,17,15,13.60
2015,04,28,17,16,13.60
2015,04,28,17,17,13.60
2015,04,28,17,18,13.60
2015,04,28,17,19,13.60
2015,04,28,17,20,13.60
2015,04,28,17,21,13.60
2015,04,28,17,22,13.60
2015,04,28,17,23,13.60
2015,04,28,17,24,13.60
2015,04,28,17,25,13.60
2015,04,28,17,26,13.60
2015,04,28,17,27,13.60
2015,04,28,17,28,13.60
2015,04,28,17,29,13.60
2015,04,28,17,30,13.60
2015,04,28,17,31,13.60
2015,04,28,17,32,13.60
2015,04,28,17,33,13.60
2015,04,28,17,34,13.60
2015,04,28,17,35,13.50
2015,04,28,17,36,13.50
2015,04,28,17,37,13.40
2015,04,28,17,38,13.40
2015,04,28,17,39,13.40
2015,04,28,17,40,13.30
2015,04,28,17,41,13.30
2015,04,28,17,42,13.30
2015,04,28,17,43,13.30
2015,04,28,17,44,13.20
2015,04,28,17,45,13.20
2015,04,28,17,46,13.20
2015,04,28,17,47,13.20
2015,04,28,17,48,13.20
2015,04,28,17,49,13.20
2015,04,28,17,50,13.10
2015,04,28,17,51,13.10
2015,04,28,17,52,13.10
2015,04,28,17,53,13.10
2015,04,28,17,54,13.10
2015,04,28,17,55,13.00
2015,04,28,17,56,13.00
2015,04,28,17,57,12.90
2015,04,28,17,58,12.90
2015,04,28,17,59,12.90
2015,04,28,18,00,12.80
2015,04,28,18,01,12.80
2015,04,28,18,02,12.80
2015,04,28,18,03,12.70
2015,04,28,18,04,12.70
2015,04,28,18,05,12.60
2015,04,28,18,06,12.60
2015,04,28,18,07,12.60
2015,04,28,18,08,12.50
2015,04,28,18,09,12.50
2015,04,28,18,10,12.40
2015,04,28,18,11,12.40
2015,04,28,18,12,12.40
2015,04,28,18,13,12.30
2015,04,28,18,14,12.30
2015,04,28,18,15,12.30
2015,04,28,18,16,12.30
2015,04,28,18,17,12.30
2015,04,28,18,18,12.20
2015,04,28,18,19,12.20